Weather in Carilo

Argentina     37°09′40″S   56°53′58″W
temp.,
°C
wind,
m/s
gust,
m/s
humid.,
%
clouds,
%
prec.,
mm/h
press.,
hPa
HPBL,
m
30 november, tue
tue3000:00+14ssw8138818 0.0 1006554
03:00+13sw713861 0.0 1006453
06:00+13ssw712820 0.0 1008534
09:00+17s910650 0.0 1010853
12:00+18sse89630 0.0 1011840
15:00+18sse89652 0.0 1012821
18:00+17se89590 0.0 1013707
21:00+15ese7963100 0.0 1015400
1 december, wed
wed100:00+14ese6861100 0.0 1015342
03:00+14ese5764100 0.0 1014295
06:00+14e456488 0.0 1016284
09:00+17e555320 0.0 1017764
12:00+18e66513 0.0 1017799
15:00+19e7652100 0.0 1017758
18:00+18ene77580 0.0 1016636
21:00+15ene710730 0.0 1016374
2 december, thu
thu200:00+15ne57765 0.0 1017338
03:00+14nne5780100 0.0 1017307
06:00+14nne478499 0.0 1017216
09:00+20nne555629 0.0 1018734
12:00+23ene764811 0.0 10171088
15:00+23ene1010555 0.0 1016587
18:00+21ne910572 0.0 1015546
21:00+17ne611784 0.0 1016338
3 december, fri
fri300:00+16nne610830 0.0 1016278
03:00+15nne59864 0.0 1015267
06:00+16nne379047 0.0 1016212
09:00+20wsw0266100 0.0 1018732
12:00+20se6470100 0.0 1018539
15:00+21ne5467100 0.0 1017507
18:00+19se4474100 0.1 1017396
21:00+17ese5687100 0.4 1018321
4 december, sat
sat400:00+17ese5688100 0.3 1019270
03:00+17ene4788100 1.0 1018297
06:00+17se3387100 0.0 101973
09:00+19ese4479100 0.0 1019497
12:00+19ese5577100 0.1 1019584
15:00+20e5574100 0.3 1019510
18:00+18ene5887100 0.4 1018274
21:00+18ene4788100 1.0 1019218